Regional Weather Roundup
Issued by NWS

Home | Current Version | Previous Version | Text Only | Print | Product List | Glossary On
Versions: 1 2 3 4 5 6 7 8 9 10 11 12 13 14 15 16 17 18 19 20 21 22 23 24 25 26 27 28 29 30 31 32 33 34 35 36 37 38 39 40 41 42 43 44 45 46 47 48 49 50
238
ASUS43 KDMX 221201
RWRIA

WEATHER ROUNDUP FOR IOWA
NATIONAL WEATHER SERVICE DES MOINES IA
700 AM CDT MON MAY 22 2017

NOTE: "FAIR" INDICATES FEW OR NO CLOUDS BELOW 12,000 FEET WITH NO
SIGNIFICANT WEATHER AND/OR OBSTRUCTIONS TO VISIBILITY.

* - THESE STATIONS ARE NOT NWS STATIONS...THUS NOT UNDER NWS
QUALITY CONTROL.  THEY ALSO DO NOT REPORT WEATHER SUCH
AS PRECIPITATION OR FOG.

IAZ001>003-012>014-020>022-031>034-043>046-221300-
   NORTHWEST IOWA

CITY           SKY/WX    TMP DP  RH WIND       PRES   REMARKS
CARROLL *      CLOUDY    52  48  87 SW9       29.93F
CHEROKEE *     CLOUDY    51  47  88 CALM      29.91F
DENISON *      SUNNY     52  46  82 S3        29.95F
LE MARS *      CLOUDY    52  46  82 S3        29.92S
ORANGE CITY *  CLOUDY    50  48  93 SW6       29.91S
SHELDON *        N/A    N/A N/A N/A MISG        N/A
SIOUX CITY     CLEAR     50  46  86 NW3       29.94R
6HR MIN TEMP:  48; 6HR MAX TEMP:  56; 6HR PCP: TRACE;

SPENCER        CLOUDY    51  46  83 SW8       29.90F
6HR MIN TEMP:  42; 6HR MAX TEMP:  53; 6HR PCP:  0.01;

STORM LAKE *   CLOUDY    52  45  76 SW9       29.91F
$$

IAZ055>058-069>071-079>083-090>094-221300-
   SOUTHWEST IOWA

CITY           SKY/WX    TMP DP  RH WIND       PRES   REMARKS
ATLANTIC *     MOSUNNY   54  46  76 SW13      29.97S
AUDUBON *      CLOUDY    54  46  76 SW12      29.96S
CLARINDA *     CLOUDY    54  48  82 S6        30.03F
COUNCIL BLFS * MOCLDY    54  50  87 SW8       29.98R
CRESTON *      PTSUNNY   52  45  76 S15       30.01S
HARLAN  *      SUNNY     54  48  82 SW13      29.99R
LAMONI         PTSUNNY   52  44  74 S13       30.02S
6HR MIN TEMP:  48; 6HR MAX TEMP:  54;

RED OAK *      PTSUNNY   54  48  82 S6        29.99S
SHENANDOAH *   CLOUDY    57  50  77 S9        30.00F
$$

IAZ047>049-059>061-072>074-084-221300-
   CENTRAL IOWA

CITY           SKY/WX    TMP DP  RH WIND       PRES   REMARKS
AMES           CLOUDY    50  46  86 SW6       29.95F
6HR MIN TEMP:  44; 6HR MAX TEMP:  51;

ANKENY *       PTSUNNY   54  45  71 SW12      29.98S
BOONE *        CLOUDY    52  45  76 W7        29.96R
DES MOINES     PTSUNNY   54  44  69 S12       29.97S
6HR MIN TEMP:  48; 6HR MAX TEMP:  54;

GRINNELL*      CLOUDY    47  43  84 S9        30.00R
MARSHALLTOWN   CLOUDY    51  44  77 SW10      29.96R
6HR MIN TEMP:  43; 6HR MAX TEMP:  51;

NEWTON *       CLOUDY    52  45  76 SW12      29.97S
PELLA *        SUNNY     53  44  71 S7        30.01R
PERRY *        CLOUDY    53  47  79 S6        29.96S
$$

IAZ004>006-015-016-023>025-035-036-221300-
   NORTH CENTRAL IOWA

CITY           SKY/WX    TMP DP  RH WIND       PRES   REMARKS
ALGONA *       LGT RAIN  50  46  87 SW7       29.92S
CLARION *      CLOUDY    48  48 100 S8        29.93F
ESTHERVILLE    CLOUDY    44  44 100 S7        29.89F
6HR MIN TEMP:  41; 6HR MAX TEMP:  47;

FORT DODGE *   CLOUDY    52  46  82 S10       29.93F
MASON CITY     CLOUDY    47  43  86 SW6       29.94F
6HR MIN TEMP:  38; 6HR MAX TEMP:  47;

FOREST CITY *  DRIZZLE   43  37  81 CALM      29.93R
WEBSTER CITY * CLOUDY    52  46  82 W10       29.94R
IOWA FALLS *   RAIN      52  46  78 SW14      29.95R
$$

IAZ007>011-017>019-026>030-037>042-050>054-066-221300-
   NORTHEAST IOWA

CITY           SKY/WX    TMP DP  RH WIND       PRES   REMARKS
CEDAR RAPIDS   SUNNY     48  45  89 S9        29.97S
6HR MIN TEMP:  43; 6HR MAX TEMP:  48;

CHARLES CITY * CLOUDY    45  45 100 S6        29.95S
CLINTON *      SUNNY     48  45  89 S6        30.02S
DECORAH *      PTSUNNY   45  43  93 CALM      29.93F
DUBUQUE        SUNNY     45  43  93 SW7       29.99R
6HR MIN TEMP:  40; 6HR MAX TEMP:  45;

MONTICELLO *   MOSUNNY   48  45  87 S7        29.98S
OELWEIN *      CLOUDY    45  45 100 SE7       29.96F
WATERLOO       CLOUDY    46  43  89 CALM      29.95R
6HR MIN TEMP:  40; 6HR MAX TEMP:  46;

$$

IAZ064-065-067-068-078-221300-
   EAST CENTRAL IOWA

CITY           SKY/WX    TMP DP  RH WIND       PRES   REMARKS
DAVENPORT      SUNNY     49  44  83 S9        30.02S
6HR MIN TEMP:  45; 6HR MAX TEMP:  49;

IOWA CITY      SUNNY     48  44  86 S5        30.02R
6HR MIN TEMP:  42; 6HR MAX TEMP:  48;

MT. PLEASANT * SUNNY     48  46  95 S10       30.03S
MUSCATINE *    SUNNY     50  45  81 S9        30.03S
QUAD CITIES    SUNNY     51  44  77 SW5       30.03S
6HR MIN TEMP:  45; 6HR MAX TEMP:  51;

$$

IAZ062-063-075>077-085>089-095>099-221300-
   SOUTHEAST IOWA

CITY           SKY/WX    TMP DP  RH WIND       PRES   REMARKS
BURLINGTON     SUNNY     52  48  86 S10       30.04S
6HR MIN TEMP:  46; 6HR MAX TEMP:  52;

FAIRFIELD *    SUNNY     50  43  76 S12       30.02R
FORT MADISON * SUNNY     54  50  87 S12       30.06R
KEOKUK *       SUNNY     52  48  87 S9        30.06R
OSKALOOSA *      N/A     51  44  78 SW15      30.01R
OTTUMWA        SUNNY     51  45  79 SW16      30.01R
6HR MIN TEMP:  44; 6HR MAX TEMP:  52;

WASHINGTON *   SUNNY     48  46  93 SW13      30.02S
$$

ABBREVIATIONS USED IN REMARKS
   TC - TEMPERATURES IN CELSIUS
  WCI - WIND CHILL INDEX
   HX - HEAT INDEX
  VSB - VISIBILITY
$$





USA.gov is the U.S. government's official web portal to all federal, state and local government web resources and services.